This demonstration page uses our WeatherBlox Daily Observations layout. Learn more.

Left ArrowRight Arrow

Hourly Observations for October 2, 2022

Temp ( °F °C ) Dew Point ( °F °C ) Humidity (%) Winds ( mph kmh ) Pressure ( in mb ) Visibility ( mi km ) Precip ( " mm )
12:53 am 00:53 Clear 61 16.1 50 10 67 67 Calm 29.95 1014 10 16 0.00 0.00
1:53 am 01:53 Clear 58 14.4 52 11.1 81 81 Calm 29.94 1014 10 16 0.00 0.00
2:53 am 02:53 Clear 57 13.9 52 11.1 83 83 Calm 29.94 1014 10 16 0.00 0.00
3:53 am 03:53 Clear 55 12.8 51 10.6 86 86 NNW 3 6 29.94 1014 10 16 0.00 0.00
4:53 am 04:53 Clear 54 12.2 50 10 86 86 Calm 29.93 1014 10 16 0.00 0.00
5:53 am 05:53 Clear 55 12.8 50 10 83 83 NW 9 15 29.93 1014 10 16 0.00 0.00
6:53 am 06:53 Clear 55 12.8 49 9.4 80 80 NNW 10 17 29.95 1014 10 16 0.00 0.00
7:53 am 07:53 Sunny 55 12.8 49 9.4 80 80 NNW 9 15 29.96 1015 10 16 0.00 0.00
8:53 am 08:53 Sunny 58 14.4 49 9.4 72 72 undefined N/A 29.97 1015 10 16 0.00 0.00
9:53 am 09:53 Sunny 62 16.7 49 9.4 62 62 VRB 7 11 29.98 1015 10 16 0.00 0.00
10:53 am 10:53 Sunny 66 18.9 50 10 56 56 N 9 15 29.99 1016 10 16 0.00 0.00
11:53 am 11:53 Sunny 68 20 50 10 53 53 NW 10 17 29.99 1016 10 16 0.00 0.00
12:53 pm 12:53 Sunny 72 22.2 52 11.1 49 49 undefined N/A 29.98 1015 10 16 0.00 0.00
1:53 pm 13:53 Sunny 73 22.8 53 11.7 50 50 NNW 9 15 29.97 1015 10 16 0.00 0.00
2:53 pm 14:53 Mostly Sunny 74 23.3 53 11.7 48 48 NW 10 17 29.96 1015 10 16 0.00 0.00
3:53 pm 15:53 Sunny 75 23.9 54 12.2 48 48 NNW 13 20 29.95 1014 10 16 0.00 0.00
4:53 pm 16:53 Sunny 75 23.9 53 11.7 46 46 N 8 13 29.97 1015 10 16 0.00 0.00
5:53 pm 17:53 Sunny 73 22.8 53 11.7 50 50 NW 10 17 29.98 1015 10 16 0.00 0.00
6:53 pm 18:53 Sunny 69 20.6 52 11.1 54 54 N 9 15 30.01 1016 10 16 0.00 0.00
7:53 pm 19:53 Clear 65 18.3 52 11.1 63 63 NNW 12 19 30.03 1017 10 16 0.00 0.00
8:53 pm 20:53 Clear 63 17.2 51 10.6 65 65 N 8 13 30.04 1017 10 16 0.00 0.00
9:53 pm 21:53 Clear 61 16.1 51 10.6 70 70 N 8 13 30.05 1018 10 16 0.00 0.00
10:53 pm 22:53 Clear 60 15.6 51 10.6 72 72 NNE 3 6 30.06 1018 10 16 0.00 0.00
11:53 pm 23:53 Clear 59 15 51 10.6 75 75 NNE 3 6 30.07 1018 10 16 0.00 0.00

Powered by AerisWeather